This is the latest recevied weather packets stored in our database for station/object IR4UCA. If no packets are shown the sender has not sent any weather packets the latest 10 day(s).
| Time | Temp. | Humidity | Pressure | Rain* | Wind** | Luminosity | Snow |
|---|---|---|---|---|---|---|---|
| 1777489184 | 16.67° C | 69% | 1017.3 hPa | 0 mm | - | - | - |
| 1777488584 | 17.22° C | 68% | 1017.1 hPa | 0 mm | - | - | - |
| 1777487985 | 17.78° C | 67% | 1016.9 hPa | 0 mm | - | - | - |
| 1777487385 | 17.78° C | 65% | 1016.7 hPa | 0 mm | - | - | - |
| 1777486785 | 18.33° C | 64% | 1016.6 hPa | 0 mm | - | - | - |
| 1777486184 | 18.33° C | 63% | 1016.4 hPa | 0 mm | - | - | - |
| 1777485584 | 18.33° C | 63% | 1016.3 hPa | 0 mm | - | - | - |
| 1777484984 | 18.33° C | 64% | 1016 hPa | 0 mm | - | - | - |
| 1777484387 | 18.89° C | 63% | 1015.9 hPa | 0 mm | - | - | - |
| 1777483785 | 19.44° C | 64% | 1015.8 hPa | 0 mm | - | - | - |
| 1777483186 | 19.44° C | 64% | 1015.8 hPa | 0 mm | - | - | - |
| 1777482585 | 20° C | 63% | 1015.6 hPa | 0 mm | - | - | - |
| 1777481984 | 20.56° C | 63% | 1015.4 hPa | 0 mm | - | - | - |
| 1777481384 | 20.56° C | 63% | 1015.3 hPa | 0 mm | - | - | - |
| 1777480786 | 21.11° C | 61% | 1015.3 hPa | 0 mm | - | - | - |
| 1777480184 | 21.11° C | 61% | 1015.3 hPa | 0 mm | - | - | - |
| 1777479587 | 21.11° C | 60% | 1015.2 hPa | 0 mm | - | - | - |
| 1777478985 | 21.67° C | 60% | 1015.3 hPa | 0 mm | - | - | - |
| 1777478386 | 21.67° C | 61% | 1015.2 hPa | 0 mm | - | - | - |
| 1777477784 | 21.67° C | 61% | 1015.2 hPa | 0 mm | - | - | - |
| 1777477187 | 21.67° C | 60% | 1015.2 hPa | 0 mm | - | - | - |
| 1777476584 | 21.67° C | 60% | 1015.1 hPa | 0 mm | - | - | - |
| 1777475987 | 22.22° C | 57% | 1015 hPa | 0 mm | - | - | - |
| 1777475384 | 22.22° C | 56% | 1015.1 hPa | 0 mm | - | - | - |
| 1777474784 | 22.22° C | 58% | 1015.1 hPa | 0 mm | - | - | - |
* Rain latest hour (hover to see other rain measurements)
** Current wind speed in m/s (hover to see current wind gust speed)